Location: Azul
(36.7830°S, 59.8500°W)
Time: 12:03:30
(UTC-03:00)

DX 1 - Pass Details

Date: 01 November 2021
Orbit: 619 x 629 km, 98.4° (Epoch: 29 November)

Event Time Altitude Azimuth Distance (km) Brightness Sun altitude
Rises 20:53:17 0° 351° (N) 2,906 ? -15.3°
Reaches altitude 10° 20:55:40 10° 341° (NNW) 2,007 ? -15.7°
Maximum altitude 20:59:33 31° 278° (W) 1,112 ? -16.4°
Drops below altitude 10° 21:03:29 10° 215° (SW) 2,028 ? -17.0°
Sets 21:05:55 0° 204° (SSW) 2,942 ? -17.4°
